#timestamp,LO_Frequency,Hit,StdDev 
1572098415.8,286047001.0,N
1572098435.6,286047000.8,N
1572098455.4,286046999.9,N
1572098475.3,286046998.1,N
1572098495.1,286047001.1,N
1572098496.0,286047001.1,N
1572098515.8,286047002.4,N
1572098535.7,286047000.5,N
1572098555.5,286047000.6,N
1572098575.3,286047002.0,N
1572098595.2,286047001.9,N
1572098615.9,286047002.4,N
1572098635.7,286047000.0,N
1572098655.6,286047000.1,N
1572098675.4,286047000.2,N
1572098695.2,286047002.3,N
1572098715.1,286047001.9,N
1572098716.0,286047001.9,N
1572098735.8,286047001.4,N
1572098755.6,286047004.2,N
1572098775.5,286047004.1,N
1572098795.3,286047003.2,N
1572098815.1,286047001.4,N
1572098835.9,286047002.1,N
1572098855.7,286047004.1,N
1572098875.5,286047002.6,N
1572098895.4,286047000.5,N
1572098915.2,286046998.1,N
1572098935.0,286046998.2,N
1572098935.9,286046998.2,N
1572098955.8,286047000.4,N
1572098975.6,286047001.0,N
1572098995.4,286046999.7,N
1572099015.3,286046999.9,N
1572099035.1,286047000.1,N
1572099036.0,286047000.1,N
1572099055.8,286046999.5,N
1572099075.7,286046999.1,N
1572099095.5,286046997.0,N
1572099115.3,286046996.8,N
1572099135.2,286046997.0,N
1572099155.9,286046997.8,N
1572099175.7,286046996.7,N
1572099195.6,286046997.0,N
1572099215.4,286046997.8,N
1572099235.2,286046999.5,N
1572099255.1,286046999.3,N
1572099256.0,286046999.3,N
1572099275.8,286046996.7,N
1572099295.6,286046995.4,N
1572099315.5,286046997.5,N
1572099335.3,286046997.7,N
1572099355.1,286046995.0,N
1572099375.9,286046995.6,N
1572099395.7,286046994.1,N
1572099415.5,286046996.0,N
1572099435.4,286046995.2,N
1572099455.2,286046993.4,Y
1572099475.0,286046996.2,P
1572099475.9,286046996.2,P
1572099495.8,286046996.1,P
1572099515.6,286046994.0,Y
1572099535.4,286046997.5,P
1572099555.3,286046999.1,N
1572099575.1,286046997.3,N
1572099576.0,286046997.3,N
1572099595.8,286046997.7,N
1572099615.7,286046996.5,Y
1572099635.5,286047001.0,P
1572099655.3,286046996.5,N
1572099675.2,286046997.8,N
1572099695.9,286046999.6,N
1572099715.7,286046997.9,N
1572099735.6,286046995.5,Y
1572099755.4,286046997.0,P
1572099775.2,286046996.6,P
1572099795.1,286046995.0,P
1572099796.0,286046995.0,Y
1572099815.8,286047000.4,P
1572099835.6,286046999.0,N
1572099855.5,286046998.2,N
1572099875.3,286046999.0,N
1572099895.1,286046999.3,N
1572099915.9,286046995.0,Y
1572099935.7,286046996.7,P
1572099955.5,286046998.0,N
1572099975.4,286046997.7,N
1572099995.2,286046997.5,Y
1572100015.0,286046999.5,P
1572100015.9,286046999.5,N
1572100035.8,286046999.1,N
1572100055.6,286046999.4,N
1572100075.4,286046999.2,N
1572100095.3,286046997.8,Y
1572100115.1,286046997.4,P
1572100135.9,286046994.9,P
1572100155.7,286046995.5,N
1572100175.5,286046995.1,N
1572100195.4,286046994.5,Y
1572100215.2,286046997.3,P
1572100235.0,286046997.1,P
1572100235.9,286046997.1,P
1572100255.8,286046996.9,Y
1572100275.6,286047000.4,P
1572100295.4,286047011.9,P
1572100315.3,286047000.6,N
1572100335.1,286047002.8,N
1572100336.0,286047002.8,N
1572100355.8,286047002.7,N
1572100375.7,286046998.6,N
1572100395.5,286046998.9,N
1572100415.3,286046998.4,N
1572100435.2,286046998.3,N
1572100455.9,286046997.5,N
1572100475.7,286046997.9,N
1572100495.6,286046998.5,N
1572100515.4,286046999.5,N
1572100535.2,286046995.1,N
1572100555.1,286046999.3,N
1572100556.0,286046999.3,N
1572100575.8,286046999.1,N
1572100595.6,286046997.7,N
1572100615.5,286046996.0,N
1572100635.3,286046996.2,N
1572100655.1,286046996.7,N
1572100675.9,286046995.3,N
1572100695.7,286046995.1,N
1572100715.5,286046995.2,N
1572100735.4,286046996.1,N
1572100755.2,286046995.2,N
1572100775.0,286046996.1,N
1572100775.9,286046996.1,N
1572100795.8,286046994.5,N
1572100815.6,286046993.3,N
1572100835.4,286046996.0,N
1572100855.3,286046994.2,N
1572100875.1,286046991.7,Y
1572100876.0,286046991.7,P
1572100895.8,286046998.0,N
1572100915.7,286046997.4,N
1572100935.5,286046997.5,N
1572100955.3,286046994.9,N
1572100975.2,286046995.4,N
1572100995.9,286046993.3,Y
1572101015.7,286046999.4,P
1572101035.6,286046996.5,N
1572101055.4,286046999.3,N
1572101075.2,286046998.6,N
1572101095.1,286046998.5,N
1572101096.0,286046998.5,N
1572101115.8,286046998.2,N
1572101135.6,286046996.5,Y
1572101155.5,286047000.7,P
1572101175.3,286046998.6,N
1572101195.1,286046998.3,N
1572101215.9,286046998.3,N
1572101235.7,286047001.6,N
1572101255.5,286047002.5,N
1572101275.4,286047000.1,N
1572101295.2,286047001.1,N
1572101315.0,286047000.4,N
1572101315.9,286047000.4,N
1572101335.8,286046998.6,N
1572101355.6,286046999.1,N
1572101375.4,286046999.3,N
1572101395.3,286046999.5,N
1572101415.1,286046994.9,Y
1572101435.8,286046996.5,P
1572101455.7,286046996.5,N
1572101475.5,286046997.9,N
1572101495.3,286046995.2,Y
1572101515.2,286046996.9,P
1572101535.0,286046998.7,P
1572101535.9,286046998.7,N
1572101555.7,286046998.1,N
1572101575.6,286046998.5,N
1572101595.4,286046999.3,N
1572101615.2,286046998.8,N
1572101635.1,286046998.3,N
1572101636.0,286046998.3,N
1572101655.8,286046999.9,N
1572101675.6,286047000.4,N
1572101695.5,286047001.2,N
1572101715.3,286046998.1,N
1572101735.1,286046998.1,N
1572101755.9,286047000.0,N
1572101775.7,286047001.0,N
1572101795.5,286046999.3,N
1572101815.4,286046996.8,N
1572101835.2,286046996.6,N
1572101855.0,286046997.6,N
1572101855.9,286046997.6,N
1572101875.8,286046997.7,N
1572101895.6,286046997.7,N
1572101915.4,286046994.9,Y
1572101935.3,286046997.0,P
1572101955.1,286046999.3,N
1572101975.8,286047000.6,N
1572101995.7,286046999.6,N
